EW9318 Weather Reports


time (UTC)temp
F
wind
direction
speed
knots
gust
knots
rain 1hr
in
rain 24hr
in
rain mn
in
humidity
%
barometer
mb
20260508202515 61 240 8.7 15.6 0.00 0.00 0.00 23 1006.2
20260508202015 61 274 10.4 15.6 0.00 0.00 0.00 22 1006.4
20260508201515 61 257 7.8 14.8 0.00 0.00 0.00 25 1006.4
20260508201015 61 262 9.6 14.8 0.00 0.00 0.00 21 1006.5
20260508200538 62 270 9.6 14.8 0.00 0.00 0.00 24 1006.6
20260508200037 62 268 9.6 14.8 0.00 0.00 0.00 23 1006.6
20260508195517 62 271 7.8 13.0 0.00 0.00 0.00 25 1006.6
20260508195017 62 245 8.7 15.6 0.00 0.00 0.00 27 1006.7
20260508194517 61 250 8.7 16.5 0.00 0.00 0.00 24 1006.7
20260508194017 62 243 9.6 16.5 0.00 0.00 0.00 25 1006.8
20260508193518 62 230 9.6 14.8 0.00 0.00 0.00 25 1006.8
20260508193018 62 248 7.8 14.8 0.00 0.00 0.00 24 1006.8
20260508192517 62 269 7.8 14.8 0.00 0.00 0.00 25 1006.8
20260508192017 62 242 8.7 14.8 0.00 0.00 0.00 26 1006.8
20260508191518 62 271 7.8 13.0 0.00 0.00 0.00 27 1007.0
20260508191036 62 229 6.1 12.2 0.00 0.00 0.00 27 1007.0
20260508190517 61 269 7.0 13.9 0.00 0.00 0.00 25 1007.1
20260508190017 61 255 7.0 13.9 0.00 0.00 0.00 26 1007.1
20260508185517 62 261 8.7 14.8 0.00 0.00 0.00 25 1007.2
20260508185017 62 258 8.7 14.8 0.00 0.00 0.00 27 1007.2
20260508184518 61 284 7.8 14.8 0.00 0.00 0.00 24 1007.2
20260508184037 61 256 8.7 14.8 0.00 0.00 0.00 28 1007.2
20260508183517 61 285 5.2 16.5 0.00 0.00 0.00 26 1007.3
20260508183017 61 261 9.6 17.4 0.00 0.00 0.00 24 1007.4
20260508182517 61 228 8.7 17.4 0.00 0.00 0.00 27 1007.3
20260508182017 61 244 9.6 18.2 0.00 0.00 0.00 26 1007.4
20260508181517 61 244 9.6 18.2 0.00 0.00 0.00 28 1007.5
20260508181017 61 253 9.6 15.6 0.00 0.00 0.00 26 1007.6
20260508180515 61 262 8.7 15.6 0.00 0.00 0.00 25 1007.6
20260508180038 61 268 7.8 15.6 0.00 0.00 0.00 25 1007.6
20260508175517 61 285 8.7 16.5 0.00 0.00 0.00 25 1007.7
20260508175017 61 309 9.6 16.5 0.00 0.00 0.00 26 1007.7
20260508174517 61 278 7.0 13.0 0.00 0.00 0.00 28 1007.8
20260508174017 61 279 7.8 13.0 0.00 0.00 0.00 27 1008.0
20260508173517 61 252 6.1 14.8 0.00 0.00 0.00 27 1008.0
20260508173016 60 271 7.8 14.8 0.00 0.00 0.00 24 1008.1
20260508172517 60 296 7.8 13.0 0.00 0.00 0.00 27 1008.1
20260508172018 60 281 7.0 11.3 0.00 0.00 0.00 30 1008.1
20260508171517 60 281 5.2 10.4 0.00 0.00 0.00 27 1008.2
20260508171017 60 297 3.5 13.0 0.00 0.00 0.00 31 1008.3
20260508170517 61 276 7.0 13.0 0.00 0.00 0.00 31 1008.4
20260508170018 61 203 2.6 7.0 0.00 0.00 0.00 32 1008.5
20260508165516 60 103 1.7 9.6 0.00 0.00 0.00 33 1008.5
20260508165017 60 171 3.5 11.3 0.00 0.00 0.00 35 1008.7
20260508164516 60 216 5.2 11.3 0.00 0.00 0.00 35 1008.7
20260508164016 59 260 2.6 11.3 0.00 0.00 0.00 36 1008.8
20260508163517 59 287 1.7 7.8 0.00 0.00 0.00 35 1008.9
20260508163018 58 332 1.7 9.6 0.00 0.00 0.00 36 1009.1
20260508162536 58 315 4.3 9.6 0.00 0.00 0.00 38 1009.0
20260508162016 58 323 1.7 8.7 0.00 0.00 0.00 40 1009.1
20260508161536 58 310 4.3 8.7 0.00 0.00 0.00 38 1009.2
20260508161017 58 46 0.9 3.5 0.00 0.00 0.00 40 1009.2
20260508160516 57 13 1.7 4.3 0.00 0.00 0.00 42 1009.3
20260508160016 57 333 1.7 4.3 0.00 0.00 0.00 40 1009.3
20260508155516 57 10 1.7 4.3 0.00 0.00 0.00 44 1009.4
20260508155036 57 267 1.7 4.3 0.00 0.00 0.00 46 1009.3
20260508154516 56 260 1.7 10.4 0.00 0.00 0.00 43 1009.4
20260508154017 56 236 6.1 10.4 0.00 0.00 0.00 42 1009.3
20260508153536 57 244 3.5 8.7 0.00 0.00 0.00 43 1009.2
20260508153016 57 237 3.5 7.8 0.00 0.00 0.00 42 1009.2
20260508152558 57 207 2.6 7.8 0.00 0.00 0.00 48 1009.3
20260508152036 56 4 3.5 8.7 0.00 0.00 0.00 46 1009.3
20260508151517 56 347 3.5 8.7 0.00 0.00 0.00 46 1009.4
20260508151016 56 190 1.7 7.8 0.00 0.00 0.00 47 1009.5
20260508150518 56 259 3.5 7.8 0.00 0.00 0.00 44 1009.4
20260508150016 56 324 1.7 6.1 0.00 0.00 0.00 46 1009.6
20260508145516 56 245 2.6 6.1 0.00 0.00 0.00 46 1009.7
20260508145016 56 171 2.6 6.1 0.00 0.00 0.00 50 1009.7
20260508144516 56 235 0.9 4.3 0.00 0.00 0.00 53 1009.8
20260508144037 55 144 0.9 4.3 0.00 0.00 0.00 54 1009.9
20260508143516 55 200 1.7 4.3 0.00 0.00 0.00 53 1009.9
20260508143016 55 318 0.0 1.7 0.00 0.00 0.00 57 1009.9
20260508142516 54 343 0.0 1.7 0.00 0.00 0.00 61 1009.8
20260508142016 54 5 0.0 1.7 0.00 0.00 0.00 61 1009.9
20260508141516 54 331 0.0 1.7 0.00 0.00 0.00 65 1009.9
20260508141038 53 159 0.0 1.7 0.00 0.00 0.00 68 1010.0
20260508140518 52 254 0.0 2.6 0.00 0.00 0.00 71 1010.1
20260508140036 52 259 0.0 2.6 0.00 0.00 0.00 74 1010.1
20260508135516 52 0.0 2.6 0.00 0.00 0.00 76 1010.3
20260508135016 51 69 0.0 2.6 0.00 0.00 0.00 79 1010.3
20260508134516 51 128 0.0 1.7 0.00 0.00 0.00 81 1010.3
20260508134038 50 187 0.0 1.7 0.00 0.00 0.00 83 1010.2
20260508133516 49 210 0.0 3.5 0.00 0.00 0.00 84 1010.2
20260508133016 49 174 0.9 4.3 0.00 0.00 0.00 88 1010.1
20260508132516 48 160 1.7 4.3 0.00 0.00 0.00 88 1010.2
20260508132016 47 169 0.9 4.3 0.00 0.00 0.00 90 1010.3
20260508131517 47 185 0.9 3.5 0.00 0.00 0.00 91 1010.4
20260508131016 46 194 0.9 2.6 0.00 0.00 0.00 92 1010.5
20260508130518 45 190 0.0 1.7 0.00 0.00 0.00 93 1010.5
20260508130036 44 175 0.0 2.6 0.00 0.00 0.00 93 1010.5
20260508125517 44 199 0.9 2.6 0.00 0.00 0.00 93 1010.4
20260508125017 43 216 0.9 2.6 0.00 0.00 0.00 93 1010.5
20260508124536 43 214 0.0 2.6 0.00 0.00 0.00 94 1010.5
20260508124017 43 185 0.9 2.6 0.00 0.00 0.00 94 1010.6
20260508123517 42 184 0.0 2.6 0.00 0.00 0.00 94 1010.5
20260508123016 41 182 0.0 2.6 0.00 0.00 0.00 94 1010.4
20260508122516 41 192 0.0 2.6 0.00 0.00 0.00 94 1010.3
20260508122016 40 179 0.0 2.6 0.00 0.00 0.00 94 1010.2
20260508121536 40 193 0.9 2.6 0.00 0.00 0.00 94 1010.2
20260508121016 39 196 0.0 2.6 0.00 0.00 0.00 94 1010.2
20260508120516 38 0.0 0.0 0.00 0.00 0.00 94 1010.2
20260508120016 37 0.0 0.0 0.00 0.00 0.00 94 1010.0
20260508115536 37 0.0 0.0 0.00 0.00 0.00 94 1009.9
20260508115016 36 0.0 0.0 0.00 0.00 0.00 93 1009.8
20260508114538 36 0.0 0.0 0.00 0.00 0.00 93 1009.8
20260508114037 35 0.0 0.0 0.00 0.00 0.00 93 1009.8
20260508113516 35 0.0 0.0 0.00 0.00 0.00 94 1009.7
20260508113017 34 0.0 0.0 0.00 0.00 0.00 93 1009.6
20260508112536 33 0.0 0.0 0.00 0.00 0.00 93 1009.6
20260508112016 33 0.0 0.0 0.00 0.00 0.00 93 1009.6
20260508111516 33 0.0 0.0 0.00 0.00 0.00 93 1009.6
20260508111016 33 0.0 0.0 0.00 0.00 0.00 92 1009.6
20260508110517 32 0.0 0.0 0.00 0.00 0.00 92 1009.4
20260508110017 32 0.0 0.0 0.00 0.00 0.00 92 1009.3
20260508105516 33 0.0 0.0 0.00 0.00 0.00 92 1009.4
20260508105036 33 0.0 0.0 0.00 0.00 0.00 92 1009.4
20260508104516 33 0.0 0.0 0.00 0.00 0.00 92 1009.4
20260508104017 33 0.0 0.0 0.00 0.00 0.00 92 1009.3
20260508103517 33 0.0 0.0 0.00 0.00 0.00 92 1009.4
20260508103016 33 0.0 0.0 0.00 0.00 0.00 92 1009.4
20260508102516 33 0.0 0.0 0.00 0.00 0.00 92 1009.3
20260508102017 33 0.0 0.9 0.00 0.00 0.00 91 1009.2
20260508101517 33 102 0.0 1.7 0.00 0.00 0.00 92 1009.3
20260508101016 33 102 0.9 1.7 0.00 0.00 0.00 92 1009.2
20260508100516 33 102 0.9 1.7 0.00 0.00 0.00 92 1009.3
20260508100017 33 102 0.0 0.9 0.00 0.00 0.00 92 1009.3
20260508095516 33 0.0 0.0 0.00 0.00 0.00 92 1009.3
20260508095016 34 0.0 0.0 0.00 0.00 0.00 92 1009.4
20260508094536 34 0.0 0.0 0.00 0.00 0.00 91 1009.4
20260508094016 34 0.0 0.9 0.00 0.00 0.00 91 1009.5
20260508093537 34 102 0.0 1.7 0.00 0.00 0.00 91 1009.4
20260508093016 34 102 0.0 1.7 0.00 0.00 0.00 91 1009.4
20260508092516 34 102 0.0 1.7 0.00 0.00 0.00 91 1009.4
20260508092016 34 0.0 0.0 0.00 0.00 0.00 91 1009.3
20260508091515 34 0.0 0.0 0.00 0.00 0.00 91 1009.3
20260508091017 34 0.0 0.0 0.00 0.00 0.00 91 1009.3
20260508090517 34 0.0 0.0 0.00 0.00 0.00 91 1009.4
20260508090017 34 0.0 0.0 0.00 0.00 0.00 91 1009.4
20260508085516 35 0.0 0.0 0.00 0.00 0.00 91 1009.5
20260508085059 35 0.0 0.0 0.00 0.00 0.00 91 1009.6
20260508084537 35 0.0 0.0 0.00 0.00 0.00 91 1009.6
20260508084015 35 0.0 0.0 0.00 0.00 0.00 91 1009.6
20260508083516 35 0.0 0.0 0.00 0.00 0.00 91 1009.5
20260508083036 35 0.0 0.0 0.00 0.00 0.00 91 1009.4
20260508082515 35 0.0 0.0 0.00 0.00 0.00 90 1009.5
20260508082017 35 0.0 0.0 0.00 0.00 0.00 90 1009.5
20260508081516 35 0.0 0.0 0.00 0.00 0.00 91 1009.6
20260508081016 35 0.0 0.0 0.00 0.00 0.00 90 1009.6
20260508080517 35 0.0 0.0 0.00 0.00 0.00 90 1009.6
20260508080015 35 0.0 0.9 0.00 0.00 0.00 90 1009.7
20260508075517 35 102 0.0 1.7 0.00 0.00 0.00 90 1009.6
20260508075015 36 102 0.0 2.6 0.00 0.00 0.00 90 1009.6
20260508074517 36 101 0.9 2.6 0.00 0.00 0.00 90 1009.7
20260508074016 36 0.0 0.0 0.00 0.00 0.00 90 1009.7
20260508073515 36 0.0 0.0 0.00 0.00 0.00 90 1009.7
20260508073037 36 0.0 0.0 0.00 0.00 0.00 89 1009.8
20260508072515 36 0.0 0.0 0.00 0.00 0.00 89 1009.8
20260508072016 36 0.0 0.0 0.00 0.00 0.00 89 1009.8
20260508071557 36 0.0 0.0 0.00 0.00 0.00 89 1009.8
20260508071017 37 0.0 0.0 0.00 0.00 0.00 89 1009.7
20260508070556 37 0.0 0.0 0.00 0.00 0.00 89 1009.8
20260508070015 37 0.0 0.0 0.00 0.00 0.00 89 1009.8
20260508065515 37 0.0 0.0 0.00 0.00 0.00 89 1009.9
20260508065015 37 0.0 0.0 0.00 0.00 0.00 89 1010.0
20260508064515 37 0.0 0.0 0.00 0.00 0.00 89 1010.1
20260508064015 37 0.0 0.0 0.00 0.00 0.00 89 1010.1
20260508063515 37 0.0 0.0 0.00 0.00 0.00 88 1010.2
20260508063057 37 0.0 0.0 0.00 0.00 0.00 88 1010.2
20260508062515 38 0.0 0.0 0.00 0.00 0.00 88 1010.3
20260508062035 38 0.0 0.0 0.00 0.00 0.00 88 1010.3
20260508061517 38 0.0 0.0 0.00 0.00 0.00 87 1010.4
20260508061015 38 0.0 0.0 0.00 0.00 0.00 87 1010.4
20260508060536 38 0.0 0.0 0.00 0.00 0.00 87 1010.4
20260508060015 38 0.0 0.0 0.00 0.00 0.00 86 1010.4
20260508055515 38 0.0 0.0 0.00 0.00 0.00 86 1010.4
20260508055016 38 0.0 0.0 0.00 0.00 0.00 86 1010.3
20260508054515 39 0.0 0.0 0.00 0.00 0.00 85 1010.4
20260508054015 39 0.0 0.0 0.00 0.00 0.00 85 1010.3
20260508053515 39 0.0 0.0 0.00 0.00 0.00 85 1010.3
20260508053015 39 0.0 0.0 0.00 0.00 0.00 85 1010.2
20260508052515 39 0.0 0.0 0.00 0.00 0.00 85 1010.2
20260508052015 40 0.0 0.0 0.00 0.00 0.00 85 1010.2
20260508051515 40 0.0 0.0 0.00 0.00 0.00 84 1010.2
20260508051015 40 0.0 0.0 0.00 0.00 0.00 84 1010.2
20260508050515 40 0.0 0.0 0.00 0.00 0.00 84 1010.1
20260508050015 40 0.0 0.0 0.00 0.00 0.00 84 1010.1
20260508045555 40 0.0 0.0 0.00 0.00 0.00 84 1010.2
20260508045015 40 0.0 0.0 0.00 0.00 0.00 83 1010.1
20260508044516 41 0.0 0.0 0.00 0.00 0.00 83 1010.0
20260508044015 41 0.0 0.0 0.00 0.00 0.00 83 1009.9
20260508043515 41 0.0 0.0 0.00 0.00 0.00 82 1009.9
20260508043015 41 0.0 0.0 0.00 0.00 0.00 82 1009.9
20260508042535 41 0.0 0.0 0.00 0.00 0.00 82 1009.9
20260508042015 41 0.0 0.0 0.00 0.00 0.00 82 1009.8
20260508041515 42 0.0 0.0 0.00 0.00 0.00 81 1009.8
20260508041015 42 0.0 0.0 0.00 0.00 0.00 81 1009.8
20260508040517 42 0.0 0.0 0.00 0.00 0.00 81 1009.8
20260508040016 42 0.0 0.0 0.00 0.00 0.00 81 1009.7
20260508035516 42 0.0 0.0 0.00 0.00 0.00 80 1009.7
20260508035037 43 0.0 0.0 0.00 0.00 0.00 80 1009.7
20260508034515 43 0.0 0.0 0.00 0.00 0.00 80 1009.7
20260508034035 43 0.0 0.0 0.00 0.00 0.00 79 1009.6
20260508033515 43 0.0 0.0 0.00 0.00 0.00 79 1009.7
20260508033017 43 0.0 0.0 0.00 0.00 0.00 78 1009.7
20260508032516 43 0.0 0.0 0.00 0.00 0.00 77 1009.6
20260508032015 43 0.0 0.0 0.00 0.00 0.00 76 1009.8
20260508031515 43 0.0 0.0 0.00 0.00 0.00 76 1009.8
20260508031015 44 0.0 0.0 0.00 0.00 0.00 75 1009.9
20260508030517 44 0.0 0.0 0.00 0.00 0.00 74 1009.9
20260508030016 44 0.0 0.0 0.00 0.00 0.00 74 1009.8
20260508025515 44 0.0 0.0 0.00 0.00 0.00 73 1009.7
20260508025015 44 0.0 0.0 0.00 0.00 0.00 73 1009.7
20260508024536 45 0.0 0.0 0.00 0.00 0.00 72 1009.7
20260508024015 45 0.0 0.0 0.00 0.00 0.00 71 1009.7
20260508023515 45 0.0 0.9 0.00 0.00 0.00 70 1009.6
20260508023016 46 140 0.0 0.9 0.00 0.00 0.00 70 1009.6
20260508022515 46 140 0.0 0.9 0.00 0.00 0.00 70 1009.5
20260508022015 46 0.0 0.9 0.00 0.00 0.00 69 1009.6
20260508021515 46 139 0.0 1.7 0.00 0.00 0.00 69 1009.6
20260508021015 47 138 0.9 2.6 0.00 0.00 0.00 69 1009.5
20260508020535 47 139 1.7 2.6 0.00 0.00 0.00 69 1009.5
20260508020016 47 186 0.9 1.7 0.00 0.00 0.00 68 1009.4
20260508015516 48 221 0.0 1.7 0.00 0.00 0.00 67 1009.4
20260508015015 48 256 0.0 1.7 0.00 0.00 0.00 64 1009.4
20260508014515 48 258 0.0 1.7 0.00 0.00 0.00 64 1009.3
20260508014015 49 0.0 0.0 0.00 0.00 0.00 62 1009.3
20260508013515 49 0.0 0.0 0.00 0.00 0.00 61 1009.1
20260508013016 49 0.0 2.6 0.00 0.00 0.00 60 1009.1
20260508012515 50 245 0.0 3.5 0.00 0.00 0.00 60 1009.0
20260508012015 50 222 0.9 3.5 0.00 0.00 0.00 59 1009.0
20260508011516 50 218 0.9 4.3 0.00 0.00 0.00 58 1008.9
20260508011015 50 234 1.7 4.3 0.00 0.00 0.00 58 1008.9
20260508010515 50 235 1.7 2.6 0.00 0.00 0.00 58 1008.9
20260508010015 51 230 0.9 3.5 0.00 0.00 0.00 57 1008.9
20260508005515 51 233 1.7 6.1 0.00 0.00 0.00 57 1008.9
20260508005036 51 244 2.6 6.1 0.00 0.00 0.00 57 1008.8
20260508004515 51 242 2.6 7.8 0.00 0.00 0.00 56 1008.8
20260508004015 51 241 4.3 7.8 0.00 0.00 0.00 55 1008.8
20260508003515 51 247 4.3 7.8 0.00 0.00 0.00 55 1008.8
20260508003015 51 253 3.5 7.0 0.00 0.00 0.00 54 1008.7
20260508002517 52 246 4.3 7.0 0.00 0.00 0.00 54 1008.7
20260508002015 52 251 4.3 10.4 0.00 0.00 0.00 53 1008.7
20260508001515 52 255 7.0 12.2 0.00 0.00 0.00 52 1008.7
20260508001015 52 250 7.0 12.2 0.00 0.00 0.00 52 1008.7
20260508000515 52 252 7.0 10.4 0.00 0.00 0.00 51 1008.7
20260508000015 53 237 7.0 10.4 0.00 0.00 0.00 51 1008.5
20260507235515 53 228 5.2 13.0 0.00 0.00 0.00 51 1008.4
20260507235015 53 232 7.0 13.0 0.00 0.00 0.00 51 1008.7
20260507234515 53 228 4.3 10.4 0.00 0.00 0.00 50 1008.7
20260507234016 53 234 7.0 10.4 0.00 0.00 0.00 49 1008.6
20260507233516 53 248 6.1 10.4 0.00 0.00 0.00 49 1008.7
20260507233015 53 247 5.2 9.6 0.00 0.00 0.00 50 1008.6
20260507232516 53 254 4.3 8.7 0.00 0.00 0.00 49 1008.7
20260507232015 53 238 3.5 8.7 0.00 0.00 0.00 49 1008.7
20260507231515 53 256 3.5 7.8 0.00 0.00 0.00 49 1008.7
20260507231015 53 254 4.3 7.8 0.00 0.00 0.00 49 1008.8
20260507230515 53 258 4.3 9.6 0.00 0.00 0.00 48 1008.8
20260507230035 53 237 6.1 10.4 0.00 0.00 0.00 48 1008.9
20260507225515 53 250 7.0 10.4 0.00 0.00 0.00 47 1009.0
20260507225015 53 251 4.3 15.6 0.00 0.00 0.00 46 1009.1
20260507224515 53 247 9.6 16.5 0.00 0.00 0.00 45 1009.2
20260507224015 53 255 10.4 18.2 0.00 0.00 0.00 44 1009.3
20260507223515 54 271 11.3 18.2 0.00 0.00 0.00 43 1009.2
20260507223017 54 262 10.4 17.4 0.00 0.00 0.00 42 1009.1
20260507222517 54 253 10.4 15.6 0.00 0.00 0.00 43 1009.1
20260507222017 54 264 7.8 13.0 0.00 0.00 0.00 41 1009.1
20260507221517 54 253 5.2 11.3 0.00 0.00 0.00 43 1009.2
20260507221017 54 260 6.1 11.3 0.00 0.00 0.00 42 1009.1
20260507220518 54 273 6.1 11.3 0.00 0.00 0.00 41 1009.1
20260507220037 54 252 7.0 11.3 0.00 0.00 0.00 41 1009.2
20260507215517 54 251 5.2 9.6 0.00 0.00 0.00 43 1009.1
20260507215017 54 260 5.2 12.2 0.00 0.00 0.00 43 1009.1
20260507214558 54 251 7.0 13.9 0.00 0.00 0.00 41 1009.2
20260507214017 54 255 8.7 14.8 0.00 0.00 0.00 41 1009.2
20260507213517 54 261 8.7 14.8 0.00 0.00 0.00 41 1009.2
20260507213017 54 245 6.1 15.6 0.00 0.00 0.00 40 1009.3
20260507212518 54 257 9.6 15.6 0.00 0.00 0.00 41 1009.3
20260507212017 53 272 7.0 13.9 0.00 0.00 0.00 40 1009.4
20260507211518 53 222 5.2 12.2 0.00 0.00 0.00 42 1009.4
20260507211017 53 240 5.2 9.6 0.00 0.00 0.00 40 1009.5
20260507210517 53 207 6.1 10.4 0.00 0.00 0.00 41 1009.7
20260507210017 54 227 7.0 10.4 0.00 0.00 0.00 40 1009.6
20260507205517 54 213 7.8 13.0 0.00 0.00 0.00 41 1009.7
20260507205017 53 226 7.0 13.0 0.00 0.00 0.00 40 1009.8
20260507204517 54 214 7.0 13.0 0.00 0.00 0.00 41 1009.9
20260507204017 54 233 7.0 13.0 0.00 0.00 0.00 42 1010.0
20260507203618 54 244 7.8 13.0 0.00 0.00 0.00 42 1010.0
20260507203055 53 246 7.8 16.5 0.00 0.00 0.00 43 1010.0